Flag for Ethiopia Weather past 2 weeks in Adama, Ethiopia

Now
66 °F

Rain. Broken clouds.


Feels Like: 66 °F
Forecast: 58 / 79 °F
Wind: 5 mph from Southwest

Location: Addis Ababa Airport

Current Time: Jul 25, 2014 at 2:40:01 PM

Latest Report: Jul 25, 2014 at 1:00 PM


Visibility: 6 mi

Pressure: 30.33 "Hg

Humidity: 73%

Dew point: 57 °F

Location of AdamaLocation

Historic Weather in Adama — Graph

°F

Adama temperature yesterday

Maximum temperature yesterday: 66 °F (at 3:00 PM)
Minimum temperature yesterday: 57 °F (at 5:00 AM)
Average temperature yesterday: 61 °F

Past Weeks' High & Low Weather Summary

 TemperatureHumidityPressure
High75 °F (Jul 23, 5:00 PM)100% (Jul 18, 7:00 AM)30.48 "Hg (Jul 18, 7:00 AM)
Low54 °F (Jul 20, 9:00 AM)49% (Jul 23, 1:00 PM)30.24 "Hg (Jul 14, 5:00 PM)
Average62 °F78%30.35 "Hg
* Reported Jul 10 2:00 PM — Jul 25 1:00 PM, Adama, Weather by CustomWeather, © 2014

Note: Actual official high and low records may vary slightly from our data, if they occured in-between our weather recording intervals... More about our weather records

Advertising

Adama weather history for previous 24 hours

 ConditionsComfort  
Time TempWeatherWind HumidityBarometerVisibility
1:00 PM
Jul 25
66 °FRain. Broken clouds.5 mph73%30.33 "Hg6 mi
12:00 PM66 °FBroken clouds.6 mph68%30.36 "HgN/A
11:00 AM63 °FPartly sunny.7 mph83%30.39 "HgN/A
10:00 AM61 °FPartly sunny.7 mph83%30.39 "HgN/A
9:00 AM59 °FPartly sunny.5 mph82%30.39 "HgN/A
7:00 AM57 °FBroken clouds.2 mph88%30.36 "HgN/A
6:00 AM57 °FPassing clouds.5 mph88%30.33 "HgN/A
5:00 AM57 °FPassing clouds.5 mph88%30.33 "HgN/A
4:00 AM59 °FPassing clouds.3 mph82%30.33 "HgN/A
3:00 AM59 °FPassing clouds.2 mph82%30.33 "HgN/A
2:00 AM57 °FPassing clouds.5 mph72%30.33 "HgN/A
1:00 AM59 °FPassing clouds.5 mph77%30.36 "HgN/A
12:00 AM59 °FPassing clouds.9 mph77%30.36 "HgN/A
11:00 PM
Jul 24
59 °FPassing clouds.5 mph77%30.36 "HgN/A
10:00 PM59 °FPassing clouds.5 mph77%30.36 "HgN/A
9:00 PM61 °FPassing clouds.7 mph72%30.33 "HgN/A
8:00 PM63 °FPassing clouds.5 mph73%30.33 "HgN/A
7:00 PM63 °FPartly cloudy.5 mph73%30.30 "HgN/A
6:00 PM64 °FScattered clouds.5 mph73%30.27 "HgN/A
5:00 PM66 °FPartly sunny.5 mph68%30.24 "HgN/A
4:00 PM66 °FPartly sunny.7 mph73%30.24 "HgN/A
3:00 PM66 °FPartly sunny.5 mph68%30.27 "HgN/A
2:00 PM64 °FPartly sunny.5 mph68%30.30 "HgN/A
Weather by CustomWeather, © 2014

See weather overviewHow to use our weather pages